Location: Unspecified
(47.9110°N, 14.3980°E)
Time: 20:30:30
(UTC+00:00)

Cosmos 1459 Rocket - Pass Details

Date: 06 August 2020
Orbit: 937 x 1000 km, 83.0° (Epoch: 22 September)

Event Time Altitude Azimuth Distance (km) Brightness Sun altitude
Exits shadow 21:56:37 44° 196° (SSW) 1,325 4.3 -23.8°
Maximum altitude 21:58:46 83° 279° (W) 1,001 4.0 -23.9°
Drops below altitude 10° 22:05:10 10° 8° (N) 2,772 7.3 -24.2°
Sets 22:07:43 0° 9° (N) 3,731 8.1 -24.3°
